スペースウォッチ-ヒル彗星

P/2019 S5 ( Spacewatch-Hill )

English version
Home page
Updated on November 24, 2019

---------------------------------------------------------------------

・ プロフィール

検出日 2019年9月24日
検出光度 21.5等
検出者 Scott S. Sheppard (Cerro Tololo)

・ 軌道要素

Epoch 2019 Oct. 4.0 TT = JDT 2458760.5                                          
T 2019 Oct. 23.03675 TT                                 Bell                    
q   4.2085319            (2000.0)            P               Q                  
n   0.09427873     Peri.  327.92591     +0.98367346     -0.05428583             
a   4.7810897      Node    36.41861     +0.14727911     +0.79073450             
e   0.1197547      Incl.   16.79870     -0.10341847     +0.60974749             
P  10.5                                                                         
From 104 observations 2009 Sept. 17-2019 Oct. 31, mean residual 0".7.           

・ 光度変化

        m1 = 1.0 + 5 logΔ + 25 log r

---------------------------------------------------------------------

軌道要素はM.P.E.C. 2019-V147に掲載されたものです。
光度グラフはComet for Windowsで作成したものです。

---------------------------------------------------------------------

Copyright(C) Seiichi Yoshida (comet@aerith.net). All rights reserved.